Regional Weather Roundup
Issued by NWS

Home | Current Version | Previous Version | Graphics & Text | Print | Product List | Glossary On
Versions: 1 2 3 4 5 6 7 8 9 10 11 12 13 14 15 16 17 18 19 20 21 22 23 24 25 26 27 28 29 30 31 32 33 34 35 36 37 38 39 40 41 42 43 44 45 46 47 48 49 50
934
ASUS44 KLIX 231110
RWRLA
LOUISIANA WEATHER ROUNDUP
NATIONAL WEATHER SERVICE NEW ORLEANS LA
600 AM CDT WED JUL 23 2014

NOTE: "FAIR" INDICATES FEW OR NO CLOUDS BELOW 12,000 FEET WITH NO
      SIGNIFICANT WEATHER AND/OR OBSTRUCTIONS TO VISIBILITY.
      SKY/WX - SKY CONDITION AND SIGNIFICANT WEATHER.
      TMP - AIR TEMPERATURE.    DP   - DEWPOINT TEMPERATURE.
      RH  - RELATIVE HUMIDITY.  PRES - PRESSURE.
      HX  - HEAT INDEX.         WCI  - WIND CHILL INDEX.

*  THESE STATIONS ARE NOT NWS OR FAA STATIONS AND ARE NOT UNDER
   NWS QUALITY CONTROL.

LAZ040-048-061>063-065-066-069-231200-
SOUTHEAST LOUISIANA

CITY           SKY/WX    TMP DP  RH WIND       PRES   REMARKS
N.O. AUDUBON     N/A     79  73  82 MISG        N/A
N.O. INTL ARPT MOCLDY    76  73  91 CALM      30.03R
N.O. LAKEFRONT MOCLDY    78  74  87 E8        30.03R
N.O. DOWNTOWN* PTSUNNY   77  70  78 CALM      30.03R
SLIDELL        CLEAR     70  68  93 N6        30.03R
BATON ROUGE    CLEAR     71  68  90 NE5       30.04R
BOOTHVILLE     MOCLDY    80  75  84 S3        30.02S
BELLE CHASSE   MOCLDY    75  72  90 N3        30.02R FOG
BOGALUSA*        N/A     69  66  91 CALM      30.06R
GALLIANO*      NOT AVBL
NEW ROADS*     FAIR      71  69  95 E3        30.05R
GONZALES*      FAIR      72  72 100 CALM      30.03S
HAMMOND*       CLEAR     70  66  88 CALM      30.05S
HOUMA*         MOCLDY    74  69  82 CALM      30.02R
PORT FOURCHON* PTSUNNY   79  75  89 SW8       30.04R

$$

LAZ041-044-053-054-231200-
SOUTHWEST LOUISIANA

CITY           SKY/WX    TMP DP  RH WIND       PRES   REMARKS
LAKE CHARLES   PTCLDY    75  73  93 CALM      30.04R
LAFAYETTE      CLEAR     74  72  93 NE3       30.04R
PATTERSON      CLEAR     75  73  94 N5        30.05R
SALT POINT       N/A     78  75  90 N6        30.01R
NEW IBERIA     CLEAR     75  73  93 NE6       30.04R
CHENAULT AIRPK CLEAR     75  72  88 CALM      30.05R

$$

LAZ027-028-231200-
CENTRAL LOUISIANA

CITY           SKY/WX    TMP DP  RH WIND       PRES   REMARKS
FORT POLK      CLEAR     73  71  93 CALM      30.06R
ALEXANDRIA INT CLEAR     72  71  97 CALM      30.03R FOG
ALEXANDRIA     PTCLDY    72  69  90 CALM      30.05R FOG

$$

LAZ001-002-231200-
NORTHWEST LOUISIANA

CITY           SKY/WX    TMP DP  RH WIND       PRES   REMARKS
SHREVEPORT     CLEAR     72  69  90 CALM      30.07R
BARKSDALE AFB  CLEAR     72  70  96 N2        30.07R
DTN SHREVEPORT CLEAR     71  69  93 CALM      30.07R

$$

LAZ014-016-231200-
NORTHEAST LOUISIANA

CITY           SKY/WX    TMP DP  RH WIND       PRES   REMARKS
MONROE         CLEAR     73  71  93 CALM      30.07R
TALLULAH       PTCLDY    70  68  93 CALM      30.06S FOG

$$




USA.gov is the U.S. government's official web portal to all federal, state and local government web resources and services.